Station PCBF1 - 8729210 - Panama City Beach, FL Image indicating link to RSS feed of recent meteorological observations for station PCBF1


Conditions at PCBF1 as of
(8:30 pm EST on 12/07/2023)
0130 GMT on 12/08/2023:
     

Click on the graph icon in the table below to see a time series plot of the last five days of that observation.

5-day plot - Wind Direction Wind Direction (WDIR):ENE ( 70 deg true )
5-day plot - Wind Speed Wind Speed (WSPD): 5.1 kts
5-day plot - Wind Gust Wind Gust (GST): 5.1 kts
5-day plot - Atmospheric Pressure Atmospheric Pressure (PRES):30.19 in
5-day plot - Air Temperature Air Temperature (ATMP): 55.0 °F
5-day plot - Water Temperature Water Temperature (WTMP): 63.9 °F
5-day plot - Wind Chill Wind Chill (CHILL): 52.0 °F
5-day plot - Wind Speed at 10 Meters Wind Speed at 10 meters (WSPD10M): 3.9 kts
5-day plot - Wind Speed at 20 Meters Wind Speed at 20 meters (WSPD20M): 5.8 kts
5-day plot -  Wind Speed, Wind Gust and Atmospheric Pressure Combined plot of Wind Speed, Gust, and Air Pressure
NOS Water Level Observation Network Water Level
Previous observations
TIME
(EST)
5-day plot - Wind Direction
WDIR
 
5-day plot - Wind Speed
WSPD
kts
5-day plot - Wind Gust
GST
kts
5-day plot - Wave Height
WVHT
ft
5-day plot - Dominant Wave Period
DPD
sec
5-day plot - Average Wave Period
APD
sec
5-day plot - Mean Wave Direction
MWD
 
5-day plot - Atmospheric Pressure
PRES
in
5-day plot - Pressure Tendency
PTDY
in
5-day plot - Air Temperature
ATMP
°F
5-day plot - Water Temperature
WTMP
°F
5-day plot - Dew Point
DEWP
°F
5-day plot - Salinity
SAL
psu
5-day plot - Visibility
VIS
nmi
5-day plot - Tide (above MLLW)
TIDE
ft
2023-12-07 08:24 pmENE 4.1 6.0----30.19- 55.0 63.9----
2023-12-07 08:18 pm SE 5.1 8.0----30.19- 58.1 63.9----
2023-12-07 08:12 pm S 7.0 8.0----30.19- 59.2 64.0----
2023-12-07 08:06 pm S 6.0 8.0----30.19- 59.2 64.0----
2023-12-07 08:00 pm S 5.1 8.0----30.19+0.01 58.8 64.0----
2023-12-07 07:54 pm S 5.1 7.0----30.18- 59.0 64.0----
2023-12-07 07:48 pm S 6.0 8.9----30.18- 58.8 64.0----
2023-12-07 07:42 pm S 6.0 8.0----30.18- 58.8 64.0----
2023-12-07 07:36 pm S 6.0 7.0----30.18- 58.8 64.2----
2023-12-07 07:30 pm S 6.0 8.0----30.18- 58.8 64.2----
2023-12-07 07:24 pm S 5.1 7.0----30.18- 58.6 64.0----
2023-12-07 07:18 pmSSW 4.1 5.1----30.18- 58.5 64.0----
2023-12-07 07:12 pmSSW 5.1 6.0----30.18- 58.1 64.2----
2023-12-07 07:06 pmSSW 4.1 5.1----30.18- 58.1 64.2----
2023-12-07 07:00 pmSSW 5.1 5.1----30.18-0.01 58.1 64.0----
2023-12-07 06:54 pmSSW 5.1 6.0----30.18- 58.1 64.2----
2023-12-07 06:48 pmSSW 6.0 7.0----30.18- 58.1 64.2----
2023-12-07 06:42 pmSSW 5.1 8.0----30.18- 58.1 64.2----
2023-12-07 06:36 pmSSW 5.1 7.0----30.18- 58.1 64.2----
2023-12-07 06:30 pm SW 6.0 8.0----30.18-- 64.2----
2023-12-07 06:24 pm SW 5.1 7.0----30.18-- 64.2----
2023-12-07 06:00 pm SW 4.1 6.0----30.18-0.02- 64.0----
2023-12-07 05:54 pm SW 4.1 6.0----30.18-- 64.0----
2023-12-07 05:48 pm SW 5.1 6.0----30.18- 57.6 64.0----
2023-12-07 05:42 pm S 6.0 7.0----30.18- 57.6 64.0----
2023-12-07 05:36 pm S 5.1 6.0----30.18- 57.7 64.0----
2023-12-07 05:30 pmSSW 5.1 6.0----30.18- 57.6 64.0----
2023-12-07 05:24 pm S 4.1 5.1----30.18- 57.6 64.0----
2023-12-07 05:18 pm S 4.1 5.1----30.18- 57.6 64.0----
2023-12-07 05:12 pm S 2.9 5.1----30.18- 57.7 64.0----
2023-12-07 05:06 pm S 1.9 4.1----30.18- 57.7 64.0----
2023-12-07 05:00 pm S 1.0 2.9----30.18-0.03 57.6 64.0----
2023-12-07 04:54 pm S 1.9 2.9----30.19- 57.7 64.0----
2023-12-07 04:48 pmSSW 1.9 2.9----30.18- 58.1 64.0----
2023-12-07 04:42 pmSSW 2.9 4.1----30.19- 58.1 64.0----
2023-12-07 04:36 pm SW 2.9 2.9----30.19- 58.6 64.0----
2023-12-07 04:30 pm SW 2.9 4.1----30.19- 58.3 64.0----
2023-12-07 04:24 pm SW 2.9 4.1----30.19- 59.0 64.0----
2023-12-07 04:18 pmSSW 2.9 5.1----30.19- 58.3 64.0----
2023-12-07 04:12 pm S 2.9 5.1----30.19- 58.3 64.0----
2023-12-07 04:06 pm S 2.9 4.1----30.19- 58.1 64.0----
2023-12-07 04:00 pm S 2.9 5.1----30.19-0.04 58.1 64.0----
2023-12-07 03:54 pmSSW 5.1 6.0----30.20- 57.7 64.0----
2023-12-07 03:48 pm S 2.9 5.1----30.19- 57.6 64.0----
2023-12-07 03:42 pmSSW 4.1 5.1----30.19- 57.6 64.0----
2023-12-07 03:36 pm S 2.9 4.1----30.19- 58.3 64.0----
2023-12-07 03:30 pmSSW 1.9 5.1----30.19- 58.5 64.0----
2023-12-07 03:24 pm S 4.1 5.1----30.19- 57.7 64.0----
2023-12-07 03:18 pm S 2.9 5.1----30.19- 57.2 64.0----
2023-12-07 03:12 pm S 2.9 5.1----30.19- 56.8 64.0----
2023-12-07 03:06 pm S 4.1 5.1----30.20- 56.8 64.0----
2023-12-07 03:00 pm S 2.9 5.1----30.19-0.07 57.0 64.0----
2023-12-07 02:54 pm S 4.1 6.0----30.20- 57.0 64.0----
2023-12-07 02:48 pm SE 4.1 5.1----30.20- 57.0 63.9----
2023-12-07 02:42 pm S 2.9 5.1----30.19- 57.4 64.0----
2023-12-07 02:36 pmSSE 4.1 5.1----30.19- 57.6 64.0----
2023-12-07 02:30 pm S 4.1 5.1----30.20- 57.0 63.9----
2023-12-07 02:24 pm S 4.1 6.0----30.20- 57.9 63.9----
2023-12-07 02:18 pm SW 2.9 5.1----30.20- 59.5 63.9----
2023-12-07 02:12 pm SW 4.1 5.1----30.20- 57.9 63.9----
2023-12-07 02:06 pm SW 2.9 4.1----30.21- 57.6 63.9----
2023-12-07 02:00 pm SW 4.1 6.0----30.21-0.07 57.4-----
2023-12-07 01:54 pm SW 5.1 6.0----30.21- 57.4-----
2023-12-07 01:48 pmSSW 4.1 5.1----30.21- 57.4 63.7----
2023-12-07 01:42 pmWSW 4.1 5.1----30.21- 56.8 63.7----
2023-12-07 01:36 pmWSW 2.9 5.1----30.22- 57.6 63.7----
2023-12-07 01:30 pm SW 4.1 5.1----30.22- 57.6 63.7----
2023-12-07 01:24 pm SW 4.1 5.1----30.22- 57.7 63.7----
2023-12-07 01:18 pmSSW 2.9 5.1----30.22- 58.6 63.7----
2023-12-07 01:12 pm SE 1.0 1.9----30.23- 59.9 63.7----
2023-12-07 01:06 pm- 0.0 1.0----30.23- 60.4 63.5----
2023-12-07 01:00 pm SE 1.0 1.9----30.23-0.06 59.7 63.5----
2023-12-07 12:54 pm S 2.9 4.1----30.23- 58.3 63.5----
2023-12-07 12:48 pmSSW 1.9 2.9----30.24- 59.5 63.5----
2023-12-07 12:42 pm- 0.0 1.9----30.24- 59.4 63.5----
2023-12-07 12:36 pm NW 1.9 4.1----30.24- 57.6 63.3----
2023-12-07 12:30 pm E 2.9 6.0----30.24- 57.6 63.3----
2023-12-07 12:24 pmENE 2.9 5.1----30.25- 56.8 63.3----
2023-12-07 12:18 pmNNE 4.1 6.0----30.25- 56.1 63.3----
2023-12-07 12:12 pmNNE 4.1 6.0----30.26- 55.9 63.3----
2023-12-07 12:06 pmENE 4.1 6.0----30.26- 56.5 63.3----
2023-12-07 12:00 pmENE 1.9 6.0----30.26-0.02 56.8 63.3----
2023-12-07 11:54 am NE 4.1 8.0----30.27- 55.6 63.3----
2023-12-07 11:48 amNNE 5.1 8.9----30.27- 54.9 63.3----
2023-12-07 11:42 am NE 6.0 8.0----30.27- 55.2 63.3----
2023-12-07 11:36 am NE 5.1 8.0----30.27- 54.9 63.5----
2023-12-07 11:30 am NE 6.0 8.9----30.28- 54.7 63.3----
2023-12-07 11:24 am NE 5.1 8.0----30.28- 54.5 63.3----
2023-12-07 11:18 am NE 8.0 9.9----30.28- 54.0 63.5----
2023-12-07 11:12 amENE 8.0 9.9----30.28- 54.1 63.3----
2023-12-07 11:06 am NE 4.1 8.9----30.28- 54.7 63.3----
2023-12-07 11:00 am E 2.9 8.9----30.29+0.01 54.7 63.5----
2023-12-07 10:54 am NE 5.1 8.0----30.29- 53.8 63.5----
2023-12-07 10:48 am NE 6.0 7.0----30.29- 53.4 63.5----
2023-12-07 10:42 am NE 5.1 8.9----30.29- 53.4 63.5----
2023-12-07 10:36 am NE 7.0 8.9----30.29- 52.3 63.5----
2023-12-07 10:30 am NE 7.0 9.9----30.29- 52.3 63.5----
2023-12-07 10:24 amENE 5.1 9.9----30.29- 52.3 63.5----
2023-12-07 10:18 am E 4.1 8.0----30.29- 52.3 63.5----
2023-12-07 10:12 amENE 7.0 9.9----30.29- 51.6 63.5----
2023-12-07 10:06 amENE 6.0 11.1----30.29- 51.4 63.5----
2023-12-07 10:00 amENE 8.9 12.0----30.29+0.01 50.9 63.5----
2023-12-07 09:54 amENE 7.0 11.1----30.29- 50.7 63.5----
2023-12-07 09:48 am NE 7.0 9.9----30.29- 50.2 63.5----
2023-12-07 09:42 am NE 6.0 8.9----30.29- 50.0 63.5----
2023-12-07 09:36 amENE 6.0 11.1----30.29- 50.0 63.5----
2023-12-07 09:30 amENE 5.1 8.9----30.29- 50.0 63.5----
2023-12-07 09:24 am NE 6.0 8.0----30.29- 49.5 63.5----
2023-12-07 09:18 amENE 5.1 9.9----30.29- 49.5 63.3----
2023-12-07 09:12 amENE 8.0 9.9----30.29- 48.7 63.3----
2023-12-07 09:06 am NE 7.0 9.9----30.28- 48.2 63.3----
2023-12-07 09:00 amENE 7.0 8.9----30.28+0.01 47.7 63.3----
2023-12-07 08:54 am NE 6.0 11.1----30.28- 47.3 63.3----
2023-12-07 08:48 am NE 7.0 8.9----30.28- 46.9 63.3----
2023-12-07 08:42 am NE 7.0 8.9----30.28- 46.6 63.3----
2023-12-07 08:36 am NE 6.0 8.9----30.28- 46.4 63.3----
2023-12-07 08:30 am NE 7.0 8.9----30.28- 46.0 63.3----
2023-12-07 08:24 amENE 6.0 8.9----30.28- 45.7 63.3----
2023-12-07 08:18 am NE 6.0 8.9----30.28- 45.1 63.3----
2023-12-07 08:12 amENE 6.0 8.9----30.28- 45.1 63.3----
2023-12-07 08:06 am NE 6.0 8.0----30.28- 44.6 63.3----
2023-12-07 08:00 am NE 6.0 8.9----30.28+0.00 44.4 63.3----
2023-12-07 07:54 am NE 6.0 8.0----30.28- 44.2 63.1----
2023-12-07 07:48 am NE 6.0 8.9----30.27- 44.1 63.1----
2023-12-07 07:42 am NE 6.0 8.0----30.27- 44.1 63.1----
2023-12-07 07:36 am NE 6.0 9.9----30.27- 43.9 63.1----
2023-12-07 07:30 am NE 6.0 8.0----30.27- 43.7 63.1----
2023-12-07 07:24 am NE 6.0 8.9----30.28- 43.9 63.1----
2023-12-07 07:18 am NE 6.0 8.9----30.27- 44.1 63.1----
2023-12-07 07:12 amENE 6.0 8.0----30.27- 44.1 63.1----
2023-12-07 07:06 am NE 7.0 8.9----30.27- 44.2 63.1----
2023-12-07 07:00 amENE 6.0 8.0----30.28+0.01 44.6 63.1----
2023-12-07 06:54 amENE 6.0 11.1----30.28- 44.8 63.1----
2023-12-07 06:48 amENE 6.0 8.9----30.28- 44.8 63.1----
2023-12-07 06:42 amENE 6.0 8.9----30.28- 45.0 63.1----
2023-12-07 06:36 amENE 5.1 8.0----30.28- 45.1 63.1----
2023-12-07 06:30 am NE 6.0 8.9----30.28- 44.8 63.3----
2023-12-07 06:24 am NE 6.0 7.0----30.27- 44.6 63.1----
2023-12-07 06:18 amENE 6.0 8.0----30.27- 44.8 63.1----
2023-12-07 06:12 amENE 6.0 8.0----30.27- 44.6 63.1----
2023-12-07 06:06 am NE 6.0 7.0----30.27- 44.6 63.1----
2023-12-07 06:00 am NE 5.1 8.0----30.27+0.00 44.6 63.0----
2023-12-07 05:54 am NE 5.1 8.0----30.27- 44.8 63.0----
2023-12-07 05:48 am-------30.27-- 63.0----
2023-12-07 05:42 am-------30.27-- 63.0----
2023-12-07 05:36 am-------30.27-- 63.0----
2023-12-07 05:30 am NE 5.1 7.0----30.27- 43.0 63.0----
2023-12-07 05:24 am NE 5.1 6.0----30.27- 42.8 63.1----
2023-12-07 05:18 amNNE 5.1 6.0----30.27- 42.6 63.1----
2023-12-07 05:12 amNNE 4.1 6.0----30.27- 42.4 63.1----
2023-12-07 05:06 am NE 5.1 7.0----30.27- 42.6 63.1----
2023-12-07 05:00 amNNE 5.1 7.0----30.27+0.01 43.0 63.1----
2023-12-07 04:54 am NE 5.1 7.0----30.27- 43.0 63.1----
2023-12-07 04:48 amNNE 5.1 7.0----30.27- 43.0 63.1----
2023-12-07 04:42 amNNE 5.1 7.0----30.27- 43.0 63.1----
2023-12-07 04:36 amNNE 6.0 7.0----30.27- 43.0 63.1----
2023-12-07 04:30 amNNE 6.0 7.0----30.27- 42.8 63.3----
2023-12-07 04:24 amNNE 6.0 7.0----30.27- 43.0 63.3----
2023-12-07 04:18 amNNE 5.1 7.0----30.27- 43.3 63.3----
2023-12-07 04:12 amNNE 5.1 7.0----30.27- 43.5 63.3----
2023-12-07 04:06 amNNE 6.0 8.0----30.27- 43.7 63.3----
2023-12-07 04:00 am NE 7.0 8.9----30.27-0.01 43.7 63.3----
2023-12-07 03:54 am NE 8.0 8.9----30.27- 43.9 63.3----
2023-12-07 03:48 am NE 7.0 9.9----30.27- 44.2 63.3----
2023-12-07 03:42 am NE 5.1 7.0----30.27- 44.1 63.3----
2023-12-07 03:36 am NE 5.1 7.0----30.27- 43.7 63.3----
2023-12-07 03:30 amNNE 5.1 6.0----30.27- 43.5 63.5----
2023-12-07 03:24 am NE 4.1 6.0----30.27- 43.5 63.5----
2023-12-07 03:18 am NE 4.1 7.0----30.27- 43.5 63.5----
2023-12-07 03:12 am NE 5.1 6.0----30.27- 43.5 63.5----
2023-12-07 03:06 am NE 5.1 6.0----30.27- 43.5 63.3----
2023-12-07 03:00 amNNE 5.1 6.0----30.27-0.02 43.3 63.3----
2023-12-07 02:54 amNNE 4.1 5.1----30.27- 43.2 63.3----
2023-12-07 02:48 amNNE 4.1 6.0----30.27- 43.2 63.3----
2023-12-07 02:42 amNNE 4.1 6.0----30.27- 43.3 63.3----
2023-12-07 02:36 amNNE 4.1 5.1----30.27- 43.5 63.3----
2023-12-07 02:30 amNNE 4.1 6.0----30.27- 43.7 63.3----
2023-12-07 02:24 amNNE 4.1 5.1----30.27- 43.7 63.3----
2023-12-07 02:18 amNNE 4.1 6.0----30.27- 43.7 63.3----
2023-12-07 02:12 amNNE 4.1 6.0----30.26- 43.7 63.3----
2023-12-07 02:06 amNNE 5.1 7.0----30.27- 43.9 63.3----
2023-12-07 02:00 amNNE 4.1 6.0----30.27-0.02 43.9 63.3----
2023-12-07 01:54 amNNE 4.1 6.0----30.27- 44.1 63.3----
2023-12-07 01:48 amNNE 5.1 6.0----30.27- 44.2 63.3----
2023-12-07 01:42 amNNE 4.1 6.0----30.27- 44.6 63.3----
2023-12-07 01:36 amNNE 4.1 7.0----30.27- 44.6 63.3----
2023-12-07 01:30 amNNE 5.1 6.0----30.27- 44.4 63.5----
2023-12-07 01:24 amNNE 5.1 6.0----30.27- 44.2 63.7----
2023-12-07 01:18 amNNE 5.1 7.0----30.27- 44.4 63.7----
2023-12-07 01:12 amNNE 6.0 7.0----30.28- 44.6 63.7----
2023-12-07 01:06 amNNE 6.0 7.0----30.28- 44.6 63.7----
2023-12-07 01:00 amNNE 5.1 6.0----30.28+0.00 44.6 63.7----
2023-12-07 12:54 amNNE 5.1 7.0----30.28- 44.8 63.7----
2023-12-07 12:48 amNNE 5.1 7.0----30.28- 44.8 63.7----
2023-12-07 12:42 amNNE 5.1 6.0----30.28- 44.8 63.7----
2023-12-07 12:36 amNNE 5.1 6.0----30.28- 45.0 63.7----
2023-12-07 12:30 amNNE 5.1 6.0----30.28- 45.1 63.7----
2023-12-07 12:24 amNNE 5.1 7.0----30.28- 45.1 63.9----
2023-12-07 12:18 amNNE 5.1 7.0----30.28- 45.1 63.9----
2023-12-07 12:12 am N 5.1 6.0----30.28- 45.1 64.0----
2023-12-07 12:06 am N 5.1 6.0----30.28- 45.7 64.0----
2023-12-07 12:00 am N 5.1 7.0----30.28+0.01 45.7 64.0----
2023-12-06 11:54 pm N 5.1 6.0----30.28- 45.7 64.0----
2023-12-06 11:48 pm N 4.1 6.0----30.29- 46.0 64.0----
2023-12-06 11:42 pm N 5.1 6.0----30.29- 46.2 64.0----
2023-12-06 11:36 pm N 5.1 6.0----30.28- 46.2 64.2----
2023-12-06 11:30 pm N 5.1 7.0----30.28- 46.4 64.2----
2023-12-06 11:24 pm N 5.1 6.0----30.28- 46.4 64.2----
2023-12-06 11:18 pm N 5.1 7.0----30.28- 46.6 64.2----
2023-12-06 11:12 pm N 6.0 7.0----30.28- 46.8 64.2----
2023-12-06 11:06 pm N 6.0 8.0----30.29- 46.9 64.0----
2023-12-06 11:00 pm N 6.0 7.0----30.29+0.03 47.1 64.0----
2023-12-06 10:54 pm N 5.1 7.0----30.28- 47.3 64.0----
2023-12-06 10:48 pm N 6.0 8.0----30.28- 47.3 64.0----
2023-12-06 10:42 pm N 6.0 8.0----30.28- 47.5 64.0----
2023-12-06 10:36 pm N 5.1 8.0----30.28- 47.7 64.0----
2023-12-06 10:30 pm N 7.0 8.0----30.28- 47.8 64.0----
2023-12-06 10:24 pm N 7.0 8.0----30.28- 48.0 64.0----
2023-12-06 10:18 pm N 6.0 7.0----30.28- 48.2 64.0----
2023-12-06 10:12 pm N 5.1 7.0----30.28- 48.6 64.0----
2023-12-06 10:06 pm N 5.1 7.0----30.28- 48.6 63.9----
2023-12-06 10:00 pmNNW 5.1 6.0----30.28- 48.9 63.9----
2023-12-06 09:54 pmNNW 5.1 7.0----30.28- 49.1 63.9----
2023-12-06 09:48 pmNNW 6.0 7.0----30.28- 49.3 63.7----
2023-12-06 09:42 pmNNW 6.0 7.0----30.28- 49.5 63.7----
2023-12-06 09:36 pmNNW 5.1 7.0----30.27- 49.3 63.7----
2023-12-06 09:30 pmNNW 6.0 7.0----30.27- 49.3 63.7----
2023-12-06 09:24 pmNNW 5.1 8.0----30.27- 49.1 63.7----
2023-12-06 09:18 pmNNW 5.1 7.0----30.27- 49.5 63.5----
2023-12-06 09:12 pmNNW 6.0 8.0----30.27- 49.6 63.7----
2023-12-06 09:06 pmNNW 6.0 8.0----30.27- 50.0 63.7----
2023-12-06 09:00 pmNNW 6.0 8.0----30.27+0.05 49.8 63.7----
2023-12-06 08:54 pmNNW 7.0 8.9----30.27- 50.5 63.7----